RYR7K EGHH-LEPA

Flight info

Callsign RYR7K
Flight time 1h 52m
Altitude 35000
Route SAM Y8 GWC UN859 SOPIL DCT BALAN DCT EVPOK DCT NARAK DCT GAI DCT LOMRA DCT ROCAN DCT IBRAP N13 LORES
Aircraft A320/M-SDE3FGHIRWY/LB1

Departure

Time 2026-05-05 21:58
Airport Bournemouth Airport (EGHH)

Arrival

Time 2026-05-05 23:50
Airport Palma de Mallorca Airport (LEPA)
Time Latitude Longitude Altitude Speed Heading
2026-05-05 21:38 50.77803 -1.83381 44 ft 0 kts 76°
2026-05-05 21:51 50.77801 -1.83396 44 ft 2 kts 71°
2026-05-05 21:51 50.77795 -1.83421 40 ft 2 kts 65°
2026-05-05 21:51 50.77787 -1.83444 43 ft 2 kts 50°
2026-05-05 21:52 50.77760 -1.83466 39 ft 2 kts 358°
2026-05-05 21:52 50.77753 -1.83466 43 ft 0 kts 356°
2026-05-05 21:54 50.77755 -1.83466 39 ft 1 kts 356°
2026-05-05 21:54 50.77772 -1.83468 41 ft 3 kts 356°
2026-05-05 21:54 50.77804 -1.83470 44 ft 6 kts 357°
2026-05-05 21:54 50.77851 -1.83474 44 ft 8 kts 357°
2026-05-05 21:55 50.77914 -1.83487 44 ft 10 kts 350°
2026-05-05 21:55 50.77986 -1.83454 44 ft 12 kts 43°
2026-05-05 21:55 50.78033 -1.83325 42 ft 15 kts 64°
2026-05-05 21:55 50.78087 -1.83173 43 ft 17 kts 55°
2026-05-05 21:56 50.78127 -1.83033 43 ft 13 kts 97°
2026-05-05 21:56 50.78124 -1.82876 43 ft 16 kts 76°
2026-05-05 21:56 50.78166 -1.82767 42 ft 7 kts 38°
2026-05-05 21:56 50.78213 -1.82714 43 ft 9 kts 26°
2026-05-05 21:57 50.78261 -1.82727 41 ft 5 kts 284°
2026-05-05 21:57 50.78256 -1.82751 43 ft 0 kts 256°
2026-05-05 21:57 50.78256 -1.82753 43 ft 1 kts 256°
2026-05-05 21:57 50.78239 -1.82857 42 ft 36 kts 256°
2026-05-05 21:58 50.78112 -1.83621 42 ft 105 kts 255°
2026-05-05 21:58 50.77878 -1.85012 50 ft 155 kts 255°
2026-05-05 21:58 50.77565 -1.86709 512 ft 163 kts 254°
2026-05-05 21:58 50.77303 -1.88478 1117 ft 168 kts 265°
2026-05-05 21:59 50.77239 -1.90358 1531 ft 179 kts 274°
2026-05-05 21:59 50.77229 -1.92427 1832 ft 196 kts 278°
2026-05-05 21:59 50.77607 -1.94504 2194 ft 203 kts 311°
2026-05-05 21:59 50.78765 -1.95734 2482 ft 213 kts 354°
2026-05-05 22:00 50.80246 -1.95324 2816 ft 230 kts 33°
2026-05-05 22:00 50.81282 -1.93335 3352 ft 245 kts 66°
2026-05-05 22:00 50.81807 -1.90728 4168 ft 253 kts 75°
2026-05-05 22:00 50.82211 -1.88040 5012 ft 257 kts 76°
2026-05-05 22:01 50.82654 -1.85306 5821 ft 262 kts 73°
2026-05-05 22:01 50.83193 -1.82483 6654 ft 266 kts 71°
2026-05-05 22:01 50.83798 -1.79730 7421 ft 271 kts 69°
2026-05-05 22:01 50.84472 -1.76918 8206 ft 275 kts 67°
2026-05-05 22:02 50.85179 -1.74121 8978 ft 280 kts 66°
2026-05-05 22:02 50.85924 -1.71255 9754 ft 284 kts 65°
2026-05-05 22:02 50.86694 -1.68331 10327 ft 295 kts 65°
2026-05-05 22:02 50.87519 -1.65219 10505 ft 318 kts 65°
2026-05-05 22:03 50.88402 -1.61887 10779 ft 336 kts 65°
2026-05-05 22:03 50.89311 -1.58439 11359 ft 342 kts 66°
2026-05-05 22:03 50.90096 -1.54862 11983 ft 348 kts 78°
2026-05-05 22:03 50.90160 -1.51011 12614 ft 355 kts 98°
2026-05-05 22:04 50.89349 -1.47304 13265 ft 361 kts 120°
2026-05-05 22:04 50.87732 -1.44254 13896 ft 365 kts 138°
2026-05-05 22:04 50.85818 -1.41592 14559 ft 366 kts 138°
2026-05-05 22:04 50.83893 -1.38939 15178 ft 368 kts 138°
2026-05-05 22:05 50.81952 -1.36271 15779 ft 370 kts 138°
2026-05-05 22:05 50.80004 -1.33586 16364 ft 373 kts 138°
2026-05-05 22:05 50.78042 -1.30875 16956 ft 376 kts 138°
2026-05-05 22:05 50.76066 -1.28141 17552 ft 379 kts 138°
2026-05-05 22:06 50.73943 -1.25670 18137 ft 382 kts 152°
2026-05-05 22:06 50.71499 -1.24058 18656 ft 385 kts 159°
2026-05-05 22:06 50.68980 -1.22558 19196 ft 389 kts 159°
2026-05-05 22:06 50.66435 -1.21062 19718 ft 392 kts 160°
2026-05-05 22:07 50.63867 -1.19560 20253 ft 396 kts 159°
2026-05-05 22:07 50.61272 -1.18043 20733 ft 400 kts 159°
2026-05-05 22:07 50.58649 -1.16508 21234 ft 403 kts 160°
2026-05-05 22:07 50.56010 -1.14958 21739 ft 407 kts 159°
2026-05-05 22:08 50.53347 -1.13388 22212 ft 410 kts 160°
2026-05-05 22:08 50.50669 -1.11810 22693 ft 413 kts 160°
2026-05-05 22:08 50.47967 -1.10223 23170 ft 416 kts 160°
2026-05-05 22:08 50.45244 -1.08625 23615 ft 419 kts 160°
2026-05-05 22:09 50.42501 -1.07018 24013 ft 422 kts 160°
2026-05-05 22:09 50.39749 -1.05409 24431 ft 423 kts 159°
2026-05-05 22:09 50.36982 -1.03795 24845 ft 425 kts 159°
2026-05-05 22:09 50.34211 -1.02184 25252 ft 426 kts 159°
2026-05-05 22:10 50.31428 -1.00565 25650 ft 427 kts 159°
2026-05-05 22:10 50.28636 -0.98941 26037 ft 429 kts 159°
2026-05-05 22:10 50.25840 -0.97315 26424 ft 430 kts 160°
2026-05-05 22:10 50.23027 -0.95684 26804 ft 432 kts 160°
2026-05-05 22:11 50.20207 -0.94052 27184 ft 433 kts 160°
2026-05-05 22:11 50.17376 -0.92415 27533 ft 435 kts 159°
2026-05-05 22:11 50.14527 -0.90766 27863 ft 438 kts 159°
2026-05-05 22:11 50.11662 -0.89110 28210 ft 440 kts 159°
2026-05-05 22:12 50.08783 -0.87446 28546 ft 442 kts 159°
2026-05-05 22:12 50.05894 -0.85782 28913 ft 443 kts 159°
2026-05-05 22:12 50.02995 -0.84121 29256 ft 445 kts 159°
2026-05-05 22:12 50.00084 -0.82457 29645 ft 445 kts 159°
2026-05-05 22:13 49.97188 -0.80797 30145 ft 443 kts 159°
2026-05-05 22:13 49.94303 -0.79140 30620 ft 440 kts 159°
2026-05-05 22:13 49.91450 -0.77504 31141 ft 436 kts 159°
2026-05-05 22:13 49.88613 -0.75886 31598 ft 434 kts 159°
2026-05-05 22:14 49.85786 -0.74277 32035 ft 432 kts 159°
2026-05-05 22:14 49.82972 -0.72673 32521 ft 429 kts 159°
2026-05-05 22:14 49.80180 -0.71085 33008 ft 426 kts 159°
2026-05-05 22:14 49.77398 -0.69506 33433 ft 425 kts 159°
2026-05-05 22:15 49.74626 -0.67931 33898 ft 423 kts 159°
2026-05-05 22:15 49.71871 -0.66372 34290 ft 421 kts 159°
2026-05-05 22:15 49.70045 -0.65340 34470 ft 422 kts 159°
2026-05-05 22:15 49.66352 -0.63252 34778 ft 424 kts 159°
2026-05-05 22:16 49.64521 -0.62218 34891 ft 424 kts 159°
2026-05-05 22:16 49.58932 -0.59058 34957 ft 432 kts 160°
2026-05-05 22:17 49.53254 -0.55855 34959 ft 434 kts 160°
2026-05-05 22:17 49.47550 -0.52657 34953 ft 437 kts 159°
2026-05-05 22:18 49.41840 -0.49462 34949 ft 437 kts 160°
2026-05-05 22:18 49.36113 -0.46271 34954 ft 439 kts 160°
2026-05-05 22:19 49.30371 -0.43077 34959 ft 439 kts 160°
2026-05-05 22:19 49.24626 -0.39881 34955 ft 440 kts 159°
2026-05-05 22:20 49.18872 -0.36686 34950 ft 440 kts 159°
2026-05-05 22:20 49.13110 -0.33497 34951 ft 441 kts 160°
2026-05-05 22:21 49.07341 -0.30315 34952 ft 441 kts 159°
2026-05-05 22:21 49.01573 -0.27136 34939 ft 441 kts 160°
2026-05-05 22:22 48.95793 -0.23971 34954 ft 442 kts 160°
2026-05-05 22:22 48.90024 -0.20818 34959 ft 441 kts 159°
2026-05-05 22:23 48.84243 -0.17654 34962 ft 441 kts 160°
2026-05-05 22:23 48.78496 -0.14530 34960 ft 441 kts 160°
2026-05-05 22:24 48.72676 -0.11375 34955 ft 441 kts 160°
2026-05-05 22:24 48.66936 -0.08255 34956 ft 441 kts 159°
2026-05-05 22:25 48.61151 -0.05124 34961 ft 441 kts 160°
2026-05-05 22:25 48.55363 -0.02006 34954 ft 442 kts 160°
2026-05-05 22:26 48.49571 0.01117 34951 ft 442 kts 160°
2026-05-05 22:26 48.43799 0.04218 34954 ft 441 kts 159°
2026-05-05 22:27 48.38015 0.07317 34957 ft 441 kts 160°
2026-05-05 22:27 48.32241 0.10401 34955 ft 440 kts 160°
2026-05-05 22:28 48.26472 0.13471 34944 ft 440 kts 160°
2026-05-05 22:28 48.20702 0.16537 34924 ft 440 kts 160°
2026-05-05 22:29 48.14930 0.19604 34912 ft 440 kts 160°
2026-05-05 22:29 48.09156 0.22660 34908 ft 440 kts 160°
2026-05-05 22:30 48.03384 0.25706 34907 ft 439 kts 160°
2026-05-05 22:30 47.97615 0.28740 34896 ft 440 kts 160°
2026-05-05 22:31 47.91838 0.31783 34889 ft 441 kts 160°
2026-05-05 22:31 47.86047 0.34816 34895 ft 441 kts 160°
2026-05-05 22:32 47.80247 0.37847 34914 ft 442 kts 160°
2026-05-05 22:32 47.74452 0.40875 34922 ft 442 kts 160°
2026-05-05 22:33 47.68690 0.43877 34917 ft 442 kts 160°
2026-05-05 22:33 47.62883 0.46878 34914 ft 442 kts 160°
2026-05-05 22:34 47.57086 0.49880 34917 ft 441 kts 160°
2026-05-05 22:34 47.51296 0.52884 34910 ft 441 kts 160°
2026-05-05 22:35 47.45506 0.55871 34908 ft 441 kts 160°
2026-05-05 22:35 47.39708 0.58852 34906 ft 441 kts 161°
2026-05-05 22:36 47.33900 0.61826 34899 ft 442 kts 161°
2026-05-05 22:36 47.28081 0.64808 34895 ft 443 kts 161°
2026-05-05 22:37 47.22256 0.67784 34892 ft 443 kts 161°
2026-05-05 22:37 47.16428 0.70752 34892 ft 443 kts 161°
2026-05-05 22:38 47.10596 0.73718 34888 ft 444 kts 161°
2026-05-05 22:38 47.04760 0.76678 34891 ft 444 kts 161°
2026-05-05 22:39 46.98926 0.79629 34889 ft 444 kts 161°
2026-05-05 22:39 46.93096 0.82585 34889 ft 443 kts 161°
2026-05-05 22:40 46.87273 0.85519 34901 ft 442 kts 162°
2026-05-05 22:40 46.81463 0.88432 34897 ft 441 kts 162°
2026-05-05 22:41 46.75658 0.91340 34898 ft 441 kts 162°
2026-05-05 22:41 46.69860 0.94238 34902 ft 440 kts 162°
2026-05-05 22:42 46.64064 0.97135 34904 ft 440 kts 162°
2026-05-05 22:42 46.58272 1.00025 34904 ft 440 kts 162°
2026-05-05 22:43 46.52510 1.02884 34911 ft 440 kts 162°
2026-05-05 22:43 46.46617 1.05022 34908 ft 439 kts 168°
2026-05-05 22:44 46.40661 1.07007 34905 ft 439 kts 168°
2026-05-05 22:44 46.34702 1.08981 34916 ft 439 kts 168°
2026-05-05 22:45 46.28749 1.10961 34919 ft 439 kts 168°
2026-05-05 22:45 46.22801 1.12942 34922 ft 439 kts 168°
2026-05-05 22:46 46.16856 1.14921 34930 ft 438 kts 168°
2026-05-05 22:46 46.10907 1.16888 34931 ft 439 kts 168°
2026-05-05 22:47 46.04954 1.18855 34933 ft 439 kts 168°
2026-05-05 22:47 45.99004 1.20815 34934 ft 438 kts 168°
2026-05-05 22:48 45.93068 1.22763 34931 ft 438 kts 168°
2026-05-05 22:48 45.87126 1.24703 34936 ft 438 kts 168°
2026-05-05 22:49 45.81192 1.26647 34930 ft 438 kts 168°
2026-05-05 22:49 45.75254 1.28586 34931 ft 438 kts 168°
2026-05-05 22:50 45.69320 1.30517 34935 ft 438 kts 168°
2026-05-05 22:50 45.63384 1.32453 34934 ft 438 kts 168°
2026-05-05 22:51 45.57447 1.34377 34945 ft 438 kts 168°
2026-05-05 22:51 45.51508 1.36300 34945 ft 438 kts 169°
2026-05-05 22:52 45.45566 1.38221 34942 ft 438 kts 169°
2026-05-05 22:52 45.39626 1.40140 34941 ft 438 kts 169°
2026-05-05 22:53 45.33681 1.42046 34950 ft 438 kts 169°
2026-05-05 22:53 45.27747 1.43950 34954 ft 438 kts 169°
2026-05-05 22:54 45.21804 1.45864 34952 ft 438 kts 169°
2026-05-05 22:54 45.15853 1.47772 34961 ft 438 kts 169°
2026-05-05 22:55 45.09906 1.49660 34964 ft 438 kts 169°
2026-05-05 22:55 45.03967 1.51542 34963 ft 438 kts 169°
2026-05-05 22:56 44.98018 1.53426 34954 ft 438 kts 170°
2026-05-05 22:56 44.92124 1.55298 34965 ft 437 kts 170°
2026-05-05 22:57 44.86205 1.57166 34970 ft 436 kts 170°
2026-05-05 22:57 44.80477 1.58965 34975 ft 436 kts 170°
2026-05-05 22:58 44.74554 1.60766 34979 ft 435 kts 171°
2026-05-05 22:58 44.68623 1.62420 34978 ft 434 kts 172°
2026-05-05 22:59 44.62689 1.64052 34977 ft 434 kts 172°
2026-05-05 22:59 44.56757 1.65675 34974 ft 434 kts 172°
2026-05-05 23:00 44.47869 1.68112 34979 ft 434 kts 172°
2026-05-05 23:00 44.41942 1.69739 34983 ft 434 kts 172°
2026-05-05 23:01 44.36036 1.71356 34976 ft 434 kts 172°
2026-05-05 23:01 44.30108 1.72962 34983 ft 434 kts 172°
2026-05-05 23:02 44.25204 1.74299 34987 ft 434 kts 172°
2026-05-05 23:02 44.19283 1.75921 34986 ft 433 kts 172°
2026-05-05 23:03 44.13362 1.77528 34985 ft 433 kts 173°
2026-05-05 23:03 44.07460 1.79314 34991 ft 435 kts 170°
2026-05-05 23:04 44.01941 1.81244 34991 ft 436 kts 169°
2026-05-05 23:04 43.96071 1.83331 34990 ft 436 kts 170°
2026-05-05 23:05 43.90188 1.85352 34992 ft 435 kts 170°
2026-05-05 23:05 43.84298 1.87327 34996 ft 435 kts 170°
2026-05-05 23:06 43.78426 1.89291 34987 ft 436 kts 171°
2026-05-05 23:06 43.72534 1.91279 34979 ft 436 kts 171°
2026-05-05 23:07 43.66653 1.93260 34999 ft 435 kts 171°
2026-05-05 23:07 43.60772 1.95233 34992 ft 435 kts 171°
2026-05-05 23:08 43.54897 1.97202 35006 ft 435 kts 171°
2026-05-05 23:08 43.49020 1.99175 35012 ft 435 kts 171°
2026-05-05 23:09 43.43144 2.01131 35012 ft 435 kts 171°
2026-05-05 23:09 43.37299 2.03073 34992 ft 435 kts 171°
2026-05-05 23:10 43.31412 2.05032 34995 ft 435 kts 171°
2026-05-05 23:10 43.25528 2.06989 34997 ft 435 kts 171°
2026-05-05 23:11 43.19636 2.08937 34981 ft 435 kts 172°
2026-05-05 23:11 43.13749 2.10878 34991 ft 435 kts 172°
2026-05-05 23:12 43.07871 2.12813 34996 ft 435 kts 172°
2026-05-05 23:12 43.01973 2.14749 35001 ft 435 kts 172°
2026-05-05 23:13 42.96085 2.16678 34973 ft 435 kts 172°
2026-05-05 23:13 42.90192 2.18614 34986 ft 435 kts 172°
2026-05-05 23:14 42.84302 2.20543 34995 ft 436 kts 172°
2026-05-05 23:14 42.78405 2.22463 34987 ft 435 kts 172°
2026-05-05 23:15 42.72517 2.24383 34986 ft 435 kts 172°
2026-05-05 23:15 42.66621 2.26305 34989 ft 435 kts 172°
2026-05-05 23:16 42.60724 2.28224 34996 ft 436 kts 172°
2026-05-05 23:16 42.54833 2.30129 34952 ft 435 kts 173°
2026-05-05 23:17 42.48946 2.32037 34967 ft 435 kts 173°
2026-05-05 23:17 42.43072 2.33933 34975 ft 434 kts 173°
2026-05-05 23:18 42.37237 2.35805 34939 ft 433 kts 174°
2026-05-05 23:18 42.31366 2.37686 34958 ft 433 kts 174°
2026-05-05 23:19 42.25548 2.39558 34958 ft 433 kts 174°
2026-05-05 23:19 42.19696 2.41435 34959 ft 432 kts 174°
2026-05-05 23:20 42.13843 2.43306 34945 ft 432 kts 175°
2026-05-05 23:20 42.07993 2.45162 34952 ft 431 kts 175°
2026-05-05 23:21 42.02152 2.47021 34959 ft 432 kts 175°
2026-05-05 23:21 41.96310 2.48882 34956 ft 431 kts 175°
2026-05-05 23:22 41.90473 2.50727 34931 ft 431 kts 175°
2026-05-05 23:22 41.84633 2.52563 34947 ft 431 kts 175°
2026-05-05 23:23 41.78799 2.54407 34948 ft 430 kts 175°
2026-05-05 23:23 41.72971 2.56252 34927 ft 431 kts 175°
2026-05-05 23:24 41.67142 2.58091 34934 ft 430 kts 175°
2026-05-05 23:24 41.61322 2.59917 34940 ft 431 kts 175°
2026-05-05 23:25 41.55509 2.61737 34940 ft 430 kts 175°
2026-05-05 23:25 41.49678 2.63559 34920 ft 430 kts 175°
2026-05-05 23:26 41.43861 2.65379 34934 ft 429 kts 175°
2026-05-05 23:26 41.38053 2.67193 34927 ft 428 kts 175°
2026-05-05 23:27 41.35189 2.68084 34796 ft 428 kts 175°
2026-05-05 23:27 41.32301 2.68984 34556 ft 426 kts 175°
2026-05-05 23:27 41.29382 2.69890 34285 ft 424 kts 176°
2026-05-05 23:27 41.26513 2.70776 34051 ft 424 kts 176°
2026-05-05 23:28 41.23681 2.71653 33589 ft 424 kts 176°
2026-05-05 23:28 41.20795 2.72544 32717 ft 427 kts 176°
2026-05-05 23:28 41.17920 2.73434 32277 ft 420 kts 176°
2026-05-05 23:28 41.15090 2.74319 31758 ft 416 kts 176°
2026-05-05 23:29 41.12284 2.75196 31242 ft 413 kts 176°
2026-05-05 23:29 41.09499 2.76063 30711 ft 409 kts 176°
2026-05-05 23:29 41.06743 2.76916 30230 ft 405 kts 176°
2026-05-05 23:29 41.04011 2.77754 29691 ft 402 kts 176°
2026-05-05 23:30 41.01299 2.78585 29184 ft 397 kts 176°
2026-05-05 23:30 40.98625 2.79407 28693 ft 393 kts 176°
2026-05-05 23:30 40.95975 2.80222 28209 ft 389 kts 177°
2026-05-05 23:30 40.93353 2.81031 27729 ft 385 kts 177°
2026-05-05 23:31 40.90806 2.81817 27262 ft 382 kts 177°
2026-05-05 23:31 40.88224 2.82608 26790 ft 380 kts 177°
2026-05-05 23:31 40.85658 2.83391 26321 ft 377 kts 177°
2026-05-05 23:31 40.83110 2.84169 25891 ft 375 kts 177°
2026-05-05 23:32 40.80574 2.84937 25446 ft 374 kts 177°
2026-05-05 23:32 40.78045 2.85702 25018 ft 373 kts 176°
2026-05-05 23:32 40.75520 2.86472 24593 ft 372 kts 176°
2026-05-05 23:32 40.73001 2.87245 24169 ft 371 kts 176°
2026-05-05 23:33 40.70496 2.88015 23751 ft 369 kts 176°
2026-05-05 23:33 40.67994 2.88784 23305 ft 368 kts 176°
2026-05-05 23:33 40.65508 2.89548 22866 ft 365 kts 176°
2026-05-05 23:33 40.63046 2.90302 22443 ft 362 kts 176°
2026-05-05 23:34 40.60607 2.91041 22019 ft 358 kts 176°
2026-05-05 23:34 40.58192 2.91768 21588 ft 354 kts 176°
2026-05-05 23:34 40.55799 2.92492 21175 ft 351 kts 176°
2026-05-05 23:34 40.53427 2.93217 20724 ft 348 kts 176°
2026-05-05 23:35 40.51078 2.93936 20302 ft 345 kts 176°
2026-05-05 23:35 40.48749 2.94648 19857 ft 343 kts 176°
2026-05-05 23:35 40.46434 2.95351 19415 ft 340 kts 176°
2026-05-05 23:35 40.44132 2.96047 18977 ft 338 kts 176°
2026-05-05 23:36 40.41847 2.96733 18524 ft 336 kts 176°
2026-05-05 23:36 40.39573 2.97411 18059 ft 334 kts 176°
2026-05-05 23:36 40.37316 2.98089 17594 ft 332 kts 175°
2026-05-05 23:36 40.35108 2.98759 17161 ft 329 kts 175°
2026-05-05 23:37 40.32892 2.99431 16722 ft 326 kts 175°
2026-05-05 23:37 40.30692 3.00093 16290 ft 323 kts 174°
2026-05-05 23:37 40.28507 3.00749 15856 ft 321 kts 174°
2026-05-05 23:37 40.26338 3.01400 15425 ft 319 kts 174°
2026-05-05 23:38 40.24181 3.02049 15001 ft 317 kts 173°
2026-05-05 23:38 40.22033 3.02697 14568 ft 316 kts 173°
2026-05-05 23:38 40.19895 3.03341 14133 ft 314 kts 173°
2026-05-05 23:38 40.17767 3.03980 13713 ft 313 kts 173°
2026-05-05 23:39 40.15649 3.04614 13249 ft 312 kts 173°
2026-05-05 23:39 40.13547 3.05247 12823 ft 309 kts 173°
2026-05-05 23:39 40.11454 3.05876 12403 ft 307 kts 173°
2026-05-05 23:39 40.09375 3.06498 11987 ft 306 kts 173°
2026-05-05 23:40 40.07305 3.07117 11575 ft 305 kts 173°
2026-05-05 23:40 40.05241 3.07735 11164 ft 304 kts 173°
2026-05-05 23:40 40.03179 3.08352 10746 ft 303 kts 172°
2026-05-05 23:40 40.01124 3.08968 10335 ft 303 kts 172°
2026-05-05 23:41 39.99097 3.09580 10168 ft 294 kts 172°
2026-05-05 23:41 39.97123 3.10174 9934 ft 288 kts 172°
2026-05-05 23:41 39.95187 3.10751 9812 ft 284 kts 172°
2026-05-05 23:41 39.93241 3.11021 9501 ft 281 kts 186°
2026-05-05 23:42 39.91324 3.10611 9103 ft 276 kts 201°
2026-05-05 23:42 39.89534 3.09678 8617 ft 278 kts 207°
2026-05-05 23:42 39.87780 3.08682 8338 ft 273 kts 207°
2026-05-05 23:42 39.86041 3.07698 7976 ft 273 kts 207°
2026-05-05 23:43 39.84300 3.06720 7590 ft 271 kts 207°
2026-05-05 23:43 39.82579 3.05757 6950 ft 270 kts 207°
2026-05-05 23:43 39.80857 3.04793 6298 ft 269 kts 207°
2026-05-05 23:43 39.79147 3.03836 5679 ft 266 kts 207°
2026-05-05 23:44 39.77448 3.02886 5041 ft 265 kts 207°
2026-05-05 23:44 39.75763 3.01944 4421 ft 263 kts 206°
2026-05-05 23:44 39.74135 3.01040 4235 ft 244 kts 206°
2026-05-05 23:44 39.72622 3.00199 4129 ft 230 kts 206°
2026-05-05 23:45 39.71186 2.99397 4028 ft 219 kts 206°
2026-05-05 23:45 39.69831 2.98640 3938 ft 212 kts 206°
2026-05-05 23:45 39.68482 2.97884 3841 ft 211 kts 206°
2026-05-05 23:45 39.67137 2.97128 3751 ft 211 kts 206°
2026-05-05 23:46 39.65790 2.96372 3658 ft 211 kts 207°
2026-05-05 23:46 39.64608 2.95297 3553 ft 208 kts 230°
2026-05-05 23:46 39.63796 2.93749 3229 ft 208 kts 241°
2026-05-05 23:46 39.63052 2.92133 2886 ft 210 kts 241°
2026-05-05 23:47 39.62295 2.90509 2568 ft 209 kts 240°
2026-05-05 23:47 39.61559 2.88943 2271 ft 198 kts 241°
2026-05-05 23:47 39.60865 2.87468 2045 ft 185 kts 241°
2026-05-05 23:47 39.60217 2.86093 1774 ft 172 kts 241°
2026-05-05 23:48 39.59624 2.84833 1564 ft 156 kts 242°
2026-05-05 23:48 39.59076 2.83669 1359 ft 146 kts 240°
2026-05-05 23:48 39.58558 2.82570 1171 ft 141 kts 240°
2026-05-05 23:48 39.58051 2.81494 990 ft 139 kts 239°
2026-05-05 23:49 39.57547 2.80424 809 ft 139 kts 239°
2026-05-05 23:49 39.57045 2.79357 632 ft 139 kts 239°
2026-05-05 23:49 39.56536 2.78288 425 ft 139 kts 238°
2026-05-05 23:49 39.56028 2.77221 255 ft 139 kts 239°
2026-05-05 23:50 39.55528 2.76150 69 ft 139 kts 238°
2026-05-05 23:50 39.55202 2.75470 29 ft 124 kts 238°
2026-05-05 23:50 39.54841 2.74693 30 ft 77 kts 240°
2026-05-05 23:50 39.54653 2.74292 34 ft 29 kts 238°
2026-05-05 23:51 39.54564 2.74087 35 ft 18 kts 251°
2026-05-05 23:51 39.54552 2.73927 34 ft 19 kts 266°
2026-05-05 23:51 39.54546 2.73792 35 ft 16 kts 269°
2026-05-05 23:51 39.54581 2.73654 35 ft 18 kts 310°
2026-05-05 23:52 39.54620 2.73582 36 ft 6 kts 230°
2026-05-05 23:52 39.54591 2.73533 36 ft 8 kts 236°
2026-05-05 23:52 39.54557 2.73467 36 ft 10 kts 236°
2026-05-05 23:52 39.54528 2.73407 37 ft 4 kts 243°
2026-05-05 23:53 39.54540 2.73389 37 ft 4 kts 343°
2026-05-05 23:53 39.54571 2.73378 36 ft 0 kts 344°